Location: ČR
(50.0000°N, 15.0000°E)
Time: 09:46:52
(UTC+01:00)

Transit 4A - All Passes

Search period start: 15 February 2026 00:00
Search period end: 25 February 2026 00:00
Orbit: 865 x 976 km, 66.8° (Epoch: 14 February)

Date Brightness Start Highest point End Pass type
(mag) Time Alt. Az. Time Alt. Az. Time Alt. Az.
15 Feb - 02:50:52 10° SE 02:53:26 13° E 02:56:02 10° ENE visible
15 Feb - 04:32:47 10° SSW 04:38:36 69° ESE 04:44:36 10° NE visible
15 Feb - 06:20:05 10° W 06:25:25 33° NW 06:30:54 10° NNE visible
15 Feb - 08:09:49 10° NW 08:13:41 17° N 08:17:38 10° NNE daylight
15 Feb - 09:58:08 10° NNW 10:02:28 19° NNE 10:06:52 10° ENE daylight
15 Feb - 11:44:28 10° NNW 11:50:24 45° NE 11:56:27 10° ESE daylight
15 Feb - 13:30:53 10° NW 13:36:51 49° WSW 13:42:54 10° S daylight
16 Feb - 02:57:48 10° SSE 03:01:49 19° ESE 03:05:54 10° ENE visible
16 Feb - 04:41:27 10° SW 04:47:20 88° NW 04:53:25 10° NE visible
16 Feb - 06:29:27 10° W 06:34:29 28° NNW 06:39:40 10° NNE visible
16 Feb - 08:19:15 10° NW 08:22:59 16° N 08:26:46 10° NE daylight
16 Feb - 10:06:58 10° NNW 10:11:41 22° NNE 10:16:28 10° ENE daylight
16 Feb - 11:53:11 10° NNW 11:59:19 58° NE 12:05:34 10° SE daylight
16 Feb - 13:39:51 10° NW 13:45:27 35° WSW 13:51:07 10° S daylight
17 Feb - 03:05:26 10° SSE 03:10:17 27° ESE 03:15:14 10° NE visible
17 Feb - 04:50:17 10° SW 04:56:08 67° NW 05:02:12 10° NNE visible
17 Feb - 06:38:55 10° WNW 06:43:37 23° NNW 06:48:26 10° NNE daylight
17 Feb - 08:28:33 10° NW 08:32:16 16° N 08:36:03 10° NE daylight
17 Feb - 10:15:45 10° NNW 10:20:51 26° NNE 10:26:01 10° E daylight
17 Feb - 12:01:56 10° NW 12:08:11 76° NE 12:14:32 10° SE daylight
17 Feb - 13:48:59 10° NW 13:53:58 26° WSW 13:59:02 10° SSW daylight
18 Feb - 03:13:27 10° S 03:18:49 39° ESE 03:24:19 10° NE visible
18 Feb - 04:59:16 10° WSW 05:05:01 51° NW 05:10:57 10° NNE visible
18 Feb - 06:48:26 10° WNW 06:52:48 20° NNW 06:57:17 10° NNE daylight
18 Feb - 08:37:43 10° NNW 08:41:34 17° N 08:45:29 10° NE daylight
18 Feb - 10:24:30 10° NNW 10:29:56 31° NNE 10:35:29 10° E daylight
18 Feb - 12:10:42 10° NW 12:16:57 83° SW 12:23:19 10° SSE daylight
18 Feb - 13:58:23 10° WNW 14:02:26 18° WSW 14:06:32 10° SW daylight
19 Feb - 03:21:43 10° SSW 03:27:24 54° ESE 03:33:16 10° NE visible
19 Feb - 05:08:25 10° WSW 05:13:58 40° NW 05:19:41 10° NNE visible
19 Feb - 06:57:58 10° WNW 07:02:02 18° NNW 07:06:12 10° NNE daylight
19 Feb - 08:46:44 10° NNW 08:50:51 18° NNE 08:55:02 10° NE daylight
19 Feb - 10:33:14 10° NNW 10:38:59 38° NE 10:44:51 10° ESE daylight
19 Feb - 12:19:31 10° NW 12:25:40 62° WSW 12:31:55 10° SSE daylight
19 Feb - 14:08:27 10° WNW 14:10:50 12° W 14:13:13 10° WSW daylight
20 Feb - 01:47:47 10° SE 01:50:50 15° ESE 01:53:55 10° ENE visible
20 Feb - 03:30:14 10° SSW 03:36:04 75° ESE 03:42:08 10° NE visible
20 Feb - 05:17:42 10° W 05:22:59 32° NW 05:28:25 10° NNE visible
20 Feb - 07:07:28 10° NW 07:11:19 17° N 07:15:14 10° NNE daylight
20 Feb - 08:55:39 10° NNW 09:00:06 20° NNE 09:04:37 10° ENE daylight
20 Feb - 10:41:57 10° NNW 10:47:57 48° NE 10:54:04 10° ESE daylight
20 Feb - 12:28:25 10° NW 12:34:19 45° WSW 12:40:19 10° S daylight
21 Feb - 01:54:58 10° SSE 01:59:14 21° ESE 02:03:35 10° ENE visible
21 Feb - 03:38:56 10° SW 03:44:50 82° NW 03:50:57 10° NE visible
21 Feb - 05:27:06 10° W 05:32:04 26° NNW 05:37:11 10° NNE visible
21 Feb - 07:16:52 10° NW 07:20:36 16° N 07:24:24 10° NE daylight
21 Feb - 09:04:28 10° NNW 09:09:17 23° NNE 09:14:11 10° ENE daylight
21 Feb - 10:50:41 10° NNW 10:56:52 62° NE 11:03:09 10° SE daylight
21 Feb - 12:37:26 10° NW 12:42:54 33° WSW 12:48:27 10° S daylight
22 Feb - 02:02:43 10° S 02:07:42 30° ESE 02:12:51 10° NE visible
22 Feb - 03:47:48 10° SW 03:53:39 62° NW 03:59:42 10° NNE visible
22 Feb - 05:36:35 10° WNW 05:41:13 23° NNW 05:45:58 10° NNE visible
22 Feb - 07:26:09 10° NW 07:29:54 16° N 07:33:44 10° NE daylight
22 Feb - 09:13:14 10° NNW 09:18:26 27° NNE 09:23:43 10° E daylight
22 Feb - 10:59:25 10° NW 11:05:42 81° NE 11:12:04 10° SE daylight
22 Feb - 12:46:36 10° WNW 12:51:25 24° WSW 12:56:17 10° SSW daylight
23 Feb - 02:10:47 10° S 02:16:15 42° ESE 02:21:53 10° NE visible
23 Feb - 03:56:50 10° WSW 04:02:32 48° NW 04:08:27 10° NNE visible
23 Feb - 05:46:06 10° WNW 05:50:25 20° NNW 05:54:50 10° NNE visible
23 Feb - 07:35:16 10° NNW 07:39:12 17° N 07:43:11 10° NE daylight
23 Feb - 09:21:59 10° NNW 09:27:32 33° NE 09:33:09 10° E daylight
23 Feb - 11:08:13 10° NW 11:14:28 77° WSW 11:20:49 10° SSE daylight
23 Feb - 12:56:06 10° WNW 12:59:52 17° WSW 13:03:39 10° SW daylight
24 Feb - 00:38:51 10° ESE 00:39:53 10° E 00:40:54 10° E visible
24 Feb - 02:19:07 10° SSW 02:24:52 59° ESE 02:30:49 10° NE visible
24 Feb - 04:06:01 10° WSW 04:11:31 38° NW 04:17:11 10° NNE visible
24 Feb - 05:55:38 10° NW 05:59:39 18° NNW 06:03:46 10° NNE visible
24 Feb - 07:44:15 10° NNW 07:48:28 19° NNE 07:52:45 10° ENE daylight
24 Feb - 09:30:42 10° NNW 09:36:33 40° NE 09:42:29 10° ESE daylight
24 Feb - 11:17:03 10° NW 11:23:09 57° WSW 11:29:22 10° SSE daylight
24 Feb - 13:06:36 10° W 13:08:14 11° W 13:09:53 10° WSW daylight
